GFSGBSN_con_lsi_159.txt.gz
Lid_Strength_Index
-1 -0 0 -0 -1 -1 -0 -0 -0 -0 -0 -0 -0 -0 -1 -1 -1 -1 -2 -2 -2 -2 -2 -2 -2 -2 1 5 5 0 -1 -1 -0 1 3 5 6 7 9 8 8 9 8 7 7 7 8
-1 -1 -1 -0 -1 -1 -1 -1 -0 0 0 0 0 -0 -0 -0 -0 -1 -1 -2 -2 -2 -2 -2 -2 -1 4 9 2 0 0 0 1 2 4 4 5 5 7 9 9 8 8 8 7 7 7
-2 -2 -1 -1 -0 -1 -1 -1 -0 -0 0 -0 -0 -0 -0 -0 -0 -0 -2 -2 -2 -2 -2 -2 -1 0 4 6 2 2 2 1 2 2 4 3 3 6 6 9 7 8 11 9 8 8 8
-2 -2 -2 -1 -0 -1 -1 -1 -1 -1 -1 -0 -1 -1 -1 -1 0 -0 -1 -2 -2 -2 -2 -2 -2 3 8 3 3 3 3 2 1 1 2 3 3 5 7 6 8 11 10 14 10 8 8
-2 -2 -2 -1 -0 -0 -1 -1 -1 -1 -1 -1 -1 -1 -1 -1 -1 0 -0 -1 -1 -2 -2 -2 3 5 9 2 5 3 2 3 2 2 2 2 4 7 7 10 12 12 16 14 12 8 9
-2 -2 -2 -2 -2 -0 -0 -0 -1 -1 -1 -1 -1 -1 -1 -1 -1 -1 0 -1 -1 -1 -0 1 2 7 6 8 4 4 3 2 4 4 5 5 7 10 10 12 17 15 15 14 14 10 10
-2 -2 -2 -2 -2 -2 -1 -0 0 -0 -1 -1 -1 -1 -1 -1 -1 -2 -1 2 5 6 5 7 7 8 8 5 3 5 2 3 4 6 10 8 11 13 12 10 11 12 13 14 12 9 11
-1 -2 -1 -2 -2 -2 -2 -1 -0 0 -0 -1 -1 -1 -1 -1 -1 -1 -0 4 5 5 8 6 6 7 6 4 7 5 2 7 8 11 9 11 13 9 8 10 11 12 13 14 11 9 11
-1 -2 -1 -1 -2 -2 -2 -2 -2 -0 -0 -0 -1 -1 -1 -0 -1 -0 2 3 1 2 8 7 6 7 7 5 8 7 4 6 9 11 11 12 11 8 10 11 13 13 14 13 13 11 11
-1 -1 -2 -2 -2 -2 -2 -2 -2 -2 -0 -0 -0 -1 -1 -1 3 1 4 2 1 1 12 11 8 7 7 6 9 5 4 6 9 11 10 11 9 10 11 12 11 15 11 11 13 14 16
-1 -1 -1 -1 -1 -1 -1 -2 -2 -2 -1 -0 -0 -0 -1 -0 3 4 3 1 1 3 20 9 8 4 6 8 9 8 5 7 10 10 10 13 11 11 12 12 10 13 10 11 13 15 14
-1 -1 -1 -1 -1 -1 -1 -1 -2 -2 -1 -1 -0 -0 -1 1 3 3 1 1 3 13 19 12 8 9 9 9 10 7 7 6 8 10 12 13 12 11 12 10 9 10 11 12 12 14 19
-1 -1 -1 -1 -1 -1 -1 -1 -2 -1 -1 -1 -1 -1 1 1 5 1 1 4 14 18 11 13 12 10 10 11 10 9 10 11 12 15 15 14 13 12 11 13 10 10 13 18 20 19 21
-1 -1 -0 -1 -1 -1 -1 -1 -1 -1 -1 -1 -1 -1 0 2 1 1 2 10 17 14 13 9 10 10 12 10 11 11 11 13 10 13 15 15 17 12 11 12 13 13 13 18 22 21 19
-1 -0 -0 -0 -1 -1 -1 -1 -1 -1 -1 -1 -1 2 3 2 1 2 7 15 15 13 11 12 11 13 13 11 11 11 12 12 10 11 15 16 16 12 11 10 10 13 15 12 16 21 20
-0 -0 -0 -0 -0 -0 -1 -1 -1 -1 -1 -1 4 4 4 1 1 5 11 13 12 10 9 10 14 12 15 13 13 12 13 10 11 9 11 13 16 12 10 9 10 11 10 16 15 21 22
-0 -0 -0 -0 -0 -0 -1 -1 -1 -1 -1 -1 4 7 5 1 3 9 14 14 12 9 8 11 12 13 12 13 12 13 13 11 9 9 9 11 13 14 11 13 13 12 14 13 13 15 20
-0 -0 -0 -0 -0 -0 -0 -1 -1 -1 -1 1 5 11 4 1 10 10 11 11 9 9 8 9 10 11 12 12 13 13 13 11 7 8 12 10 12 16 14 12 11 10 12 12 16 18 16
-0 -0 0 -0 -0 -0 -0 -1 -1 -1 -1 4 8 9 3 3 13 13 11 11 9 10 9 10 11 10 11 12 14 12 11 9 8 9 11 9 13 17 16 14 13 13 12 11 12 13 17
-0 -0 -0 -0 -0 -0 -0 -1 -1 -1 0 6 8 12 9 5 10 11 12 12 11 8 9 8 10 9 10 12 11 12 12 10 8 8 7 8 12 14 17 15 13 14 13 12 12 16 15
-0 -0 -0 -0 -0 -0 -1 -1 -1 -1 -0 6 8 9 11 13 10 11 10 11 12 12 9 9 10 10 11 13 12 13 10 11 9 7 8 9 15 13 12 13 13 12 12 13 14 13 15
-1 -1 -1 -1 -1 -1 -1 -1 -1 -1 0 7 8 9 8 9 8 10 10 11 12 11 10 11 11 10 10 12 11 13 11 11 11 10 10 9 14 13 14 12 14 14 13 12 12 12 12
-1 -1 -1 -1 -1 -1 -1 -1 -1 -1 1 6 6 7 8 8 9 10 10 11 10 9 9 8 9 10 11 10 8 9 8 8 9 10 11 11 13 14 17 13 14 16 13 12 12 11 11
-1 -1 -1 -1 -1 -1 -1 -1 -1 -0 1 4 5 6 8 11 10 10 9 10 10 9 10 10 8 9 9 6 6 7 8 8 9 9 8 12 13 13 16 16 20 12 11 10 11 10 10
-1 -1 -1 -1 -1 -1 -1 -1 -0 -0 -1 4 5 7 9 11 10 9 9 9 9 8 10 9 9 7 6 8 12 13 13 12 11 10 10 9 12 15 17 17 14 14 13 13 13 12 10
-1 -1 -1 -1 -1 -1 -1 -1 -1 -0 1 5 5 6 8 11 12 9 11 10 12 14 12 11 8 7 7 10 13 19 20 18 17 13 9 10 10 14 16 18 20 13 12 12 11 14 10
-1 -1 -1 -1 -1 -1 -1 -1 -1 -1 0 4 6 6 7 10 8 10 12 12 11 13 14 10 11 10 8 15 19 20 19 15 18 17 16 14 13 15 15 17 16 11 13 12 16 14 12
1 -0 -1 -1 -1 -1 -1 -1 -1 -1 -1 4 6 6 7 9 8 8 7 11 12 12 12 9 10 10 11 14 13 18 20 15 16 14 14 14 15 15 15 17 18 13 14 13 13 16 15
2 1 0 -0 -1 -1 -1 -1 -1 -1 -0 2 6 6 5 9 9 6 6 6 7 8 11 10 12 13 9 14 15 18 20 18 17 16 12 15 12 14 13 13 15 16 16 17 16 16 16

GFSGBSN_con_lsi_162.txt.gz
Lid_Strength_Index
-2 -2 -1 -1 -1 -1 -1 -0 -1 -1 -1 -1 -1 -1 -1 -2 -2 -1 -2 -2 -2 -2 -2 -2 -2 -2 0 4 5 -0 -1 -1 -1 0 2 4 5 5 7 6 6 7 7 6 5 5 6
-2 -2 -2 -1 -1 -2 -1 -1 -1 -1 -1 -1 -0 -0 -1 -1 -1 -1 -2 -2 -2 -2 -2 -2 -2 -2 2 7 0 -1 -1 -0 0 1 3 3 4 4 6 6 7 6 7 7 6 6 6
-2 -2 -2 -2 -1 -1 -2 -1 -2 -1 -1 -1 -1 -0 -0 -0 -1 -1 -1 -1 -2 -2 -2 -2 -1 -0 3 5 0 0 -0 1 0 1 3 2 2 4 5 7 5 6 8 8 7 6 6
-2 -2 -2 -2 -2 -1 -1 -2 -1 -1 -1 -1 -1 -1 -0 -0 -1 -1 -1 -1 -1 -1 -1 -2 -2 1 6 1 0 1 1 1 -0 0 1 1 1 4 5 5 7 8 8 11 8 7 6
-1 -2 -2 -2 -2 -2 -1 -1 -2 -2 -1 -1 -1 -1 -1 -1 -0 -1 -1 -1 -1 -1 -1 -0 1 3 7 1 3 2 1 3 2 1 1 1 3 5 6 8 10 10 12 11 10 7 7
-1 -1 -2 -2 -2 -2 -2 -1 -1 -1 -1 -2 -1 -1 -1 -2 -1 -1 -1 -1 -1 -0 1 2 3 6 5 6 3 3 1 1 3 3 4 5 6 8 8 10 15 13 12 11 11 9 8
-1 -1 -2 -2 -2 -2 -2 -2 -1 -1 -1 -2 -2 -2 -1 -2 -2 -2 -1 1 4 5 4 7 7 8 6 3 2 3 1 3 3 5 9 7 10 12 10 9 9 10 11 12 10 8 9
-1 -1 -2 -2 -2 -2 -2 -2 -2 -1 -1 -1 -1 -2 -2 -2 -2 -1 -0 4 4 3 8 4 5 6 5 3 6 4 1 6 7 10 8 10 12 8 8 8 9 10 11 12 10 8 9
-1 -1 -1 -2 -2 -1 -2 -2 -2 -2 -2 -1 -1 -2 -2 -2 -2 0 2 2 -0 1 8 7 4 6 6 4 6 6 4 5 8 9 10 11 9 7 9 10 11 11 12 11 11 10 9
-2 -1 -1 -1 -2 -1 -1 -2 -2 -2 -2 -1 -1 -1 -2 -2 2 3 3 0 -1 0 11 11 8 6 5 5 7 4 3 5 8 10 9 10 7 9 10 11 10 13 9 10 11 12 15
-1 -1 -1 -1 -1 -1 -1 -1 -1 -2 -2 -2 -1 -1 -1 -1 1 5 2 0 -0 2 20 9 8 3 4 7 7 6 2 5 9 10 9 11 10 10 12 11 9 11 9 10 11 12 13
-1 -1 -1 -1 -1 -1 -1 -1 -1 -1 -2 -1 -2 -1 -1 -0 1 2 -0 0 2 13 19 13 8 9 9 7 8 6 6 4 5 9 9 9 8 8 9 8 8 8 10 11 11 12 18
-1 -1 -1 -1 -1 -1 -1 -1 -1 -2 -2 -1 -2 -1 -0 0 4 1 2 4 14 18 10 13 12 10 10 10 10 9 10 10 11 14 14 11 10 9 8 10 9 10 12 17 19 19 18
-1 -1 -1 -1 -1 -1 -1 -1 -1 -2 -2 -2 -2 -1 -0 1 -0 2 4 10 17 14 13 9 10 10 12 10 10 10 11 12 9 10 12 15 16 11 9 10 11 12 12 16 20 19 17
-1 -1 -0 -0 -1 -1 -1 -1 -1 -1 -1 -1 -1 0 1 1 -0 3 10 15 15 13 10 11 10 13 13 11 11 11 11 11 10 9 13 14 14 10 9 9 9 12 15 10 15 17 17
-1 -1 -0 -0 -0 -0 -1 -1 -1 -1 -1 -1 1 2 2 -1 0 4 12 14 12 9 8 9 14 11 15 13 13 12 12 9 10 8 9 11 14 11 10 8 9 10 9 16 15 20 20
-0 -0 -0 -0 -0 -0 -1 -1 -1 -1 -1 -1 2 6 2 -0 1 9 14 13 11 9 7 10 11 13 12 13 12 13 12 9 8 8 7 9 11 13 10 12 12 12 13 12 12 14 17
-0 -0 0 -0 -0 -0 -1 -1 -1 -1 -1 0 4 9 2 -0 9 10 13 12 8 10 8 9 8 9 11 11 12 12 12 10 7 7 11 9 11 14 13 10 8 9 11 11 15 16 14
-0 -0 -0 -0 -0 -0 -1 -1 -1 -1 -1 2 7 6 2 2 12 12 11 10 9 10 10 10 10 8 8 11 13 11 10 7 7 8 10 9 13 17 15 12 11 12 11 10 11 11 15
-1 -0 -0 -0 -0 -0 -1 -1 -1 -1 -0 2 6 10 7 6 7 11 11 11 12 9 10 10 10 8 9 11 9 12 11 8 7 7 7 7 11 14 16 13 11 13 12 11 12 16 15
-1 -0 -1 -0 -0 -1 -1 -1 -1 -1 -0 3 7 10 8 11 10 9 10 11 12 11 9 9 10 10 10 13 11 12 10 9 8 7 8 9 14 12 11 10 10 10 11 12 13 12 15
-1 -1 0 -0 -0 -1 -1 -1 -1 -1 1 5 9 9 7 9 8 9 9 11 12 11 10 11 11 9 9 11 10 12 10 10 10 8 9 9 14 12 14 11 11 12 11 11 12 11 11
-1 -1 -1 -0 -0 -0 -1 -1 -1 -0 1 5 5 6 6 8 9 10 10 11 11 10 9 9 9 9 10 9 7 7 6 7 8 9 10 11 12 14 16 12 12 16 13 11 10 10 10
-1 -1 -1 -1 -1 -1 -1 -1 -1 -0 1 2 4 5 8 10 9 10 9 8 9 10 11 9 9 9 7 5 5 6 7 7 7 8 8 11 12 13 16 14 20 12 8 9 10 9 8
-1 -1 -1 -1 -1 -1 -1 -1 -1 -0 -0 2 4 7 8 10 9 9 8 8 8 7 8 9 7 6 4 6 10 13 13 12 11 9 9 8 11 14 17 17 13 11 10 10 11 11 8
-1 -1 -1 -1 -1 -1 -1 -1 -1 -1 -0 3 4 4 7 9 10 9 9 8 10 10 10 9 7 6 5 9 11 15 16 14 15 13 9 9 10 14 15 18 19 11 8 9 8 14 7
-0 -1 -1 -1 -1 -1 -1 -1 -1 -1 -0 3 4 4 5 9 8 9 9 9 7 9 10 9 9 9 7 11 13 14 14 12 15 15 14 14 13 15 15 17 15 10 9 9 15 13 8
0 -0 -0 -1 -1 -1 -1 -1 -1 -1 -0 2 3 4 4 8 8 7 8 9 9 8 10 10 9 9 10 12 13 13 13 13 13 11 12 14 15 15 14 16 17 7 11 11 8 10 12
2 1 0 -0 -0 -1 -1 -1 -1 -1 -1 2 3 4 4 7 8 6 6 6 7 9 9 9 10 10 8 10 11 11 13 13 12 15 10 13 10 12 11 11 9 9 9 12 13 12 12

GFSGBSN_con_lsi_165.txt.gz
Lid_Strength_Index
-2 -2 -2 -2 -1 -1 -2 -1 -1 -1 -1 -1 -1 -1 -1 -1 -2 -1 -2 -1 -1 -2 -2 -2 -2 -2 0 4 6 1 -1 -1 -1 0 2 3 5 5 7 6 6 6 6 6 5 5 5
-2 -2 -2 -2 -2 -2 -2 -2 -2 -1 -1 -1 -1 -1 -1 -1 -1 -1 -1 -1 -1 -1 -2 -1 -2 -2 2 7 -0 -1 -1 -0 1 1 2 3 4 3 6 6 6 5 5 6 6 6 5
-2 -2 -2 -2 -2 -2 -2 -2 -2 -1 -1 -1 -1 -1 -1 -1 -1 -1 -1 -1 -2 -1 -1 -1 -1 -0 3 5 -0 -1 -0 0 0 1 3 2 2 4 5 7 5 6 8 7 6 6 6
-2 -2 -2 -2 -2 -2 -2 -2 -2 -2 -1 -1 -2 -1 -1 -1 -1 -1 -1 -1 -1 -1 -1 -2 -2 1 6 1 -1 0 -0 1 0 0 1 1 1 3 5 4 6 8 8 10 8 6 6
-2 -2 -1 -1 -2 -2 -2 -2 -2 -2 -1 -1 -1 -1 -0 -1 -1 -1 -1 -1 -1 -1 -1 -1 1 3 6 1 3 1 0 2 1 1 1 1 2 5 6 8 9 9 12 11 10 7 7
-2 -2 -1 -1 -1 -2 -2 -2 -2 -2 -2 -2 -1 -1 -1 -0 -1 -1 -1 -1 -1 -1 -0 1 2 6 5 5 3 2 0 1 3 3 4 5 5 8 8 9 14 12 12 11 11 8 8
-2 -2 -1 -1 -1 -2 -2 -2 -2 -2 -2 -2 -1 -2 -1 0 -1 -2 -1 1 4 5 4 6 7 7 6 4 2 3 1 3 3 5 9 7 10 12 10 8 8 10 11 11 10 8 8
-2 -2 -1 -1 -1 -2 -2 -2 -2 -2 -1 -2 -1 -2 -2 -0 0 -2 -0 4 3 3 8 4 5 6 5 4 7 5 1 6 7 10 8 10 12 8 7 8 9 9 11 11 10 8 9
-2 -2 -2 -1 -1 -1 -2 -2 -2 -2 -2 -2 -1 -2 -2 -2 0 -0 2 2 -0 0 7 7 5 5 6 5 8 7 4 5 8 9 10 11 9 7 8 9 11 10 11 11 11 9 8
-2 -1 -1 -1 -1 -1 -1 -1 -1 -1 -1 -1 -1 -1 -2 -2 2 2 4 1 -1 0 12 11 8 6 5 5 8 5 4 5 7 10 9 9 7 8 9 10 9 12 8 9 10 12 14
-2 -1 -1 -1 -1 -1 -1 -1 -1 -1 -1 -1 -1 -1 -2 -2 1 3 3 1 -1 2 20 9 8 3 4 6 6 6 3 6 9 9 8 10 9 10 11 10 8 11 8 10 10 12 13
-1 -1 -1 -1 -1 -1 -1 -1 -1 -1 -1 -1 -1 -1 -1 -0 0 0 -0 0 2 13 19 13 8 9 9 7 7 6 6 4 6 8 8 8 7 8 8 8 8 8 10 11 11 12 17
-1 -1 -1 -1 -1 -1 -1 -1 -1 -1 -1 -1 -1 -1 -1 -1 3 -1 -0 5 14 18 11 13 12 9 9 10 9 8 9 10 11 14 14 10 10 8 7 10 9 10 12 17 18 18 17
-1 -1 -1 -1 -1 -1 -1 -1 -1 -1 -1 -1 -1 -1 -1 -0 -1 -1 2 11 17 14 14 9 10 10 12 9 10 9 10 12 9 10 11 14 16 10 8 9 11 12 12 15 19 18 16
-1 -1 -1 -1 -1 -1 -1 -1 -1 -1 -1 -1 -1 -0 1 -0 -1 -0 9 15 15 13 10 11 10 13 13 10 10 11 11 11 9 9 13 13 13 9 8 7 8 12 14 9 14 14 16
-1 -1 -0 -0 -0 -0 -1 -1 -1 -1 -1 -1 1 2 2 -1 -0 5 11 13 12 9 9 9 14 11 15 13 12 12 12 9 9 7 7 10 14 11 9 8 8 10 8 15 15 20 20
-1 -0 -0 -0 -0 -0 -1 -1 -1 -1 -1 -1 2 6 2 -1 1 8 12 12 11 9 10 10 11 13 12 13 12 13 12 9 8 8 7 9 11 13 10 12 12 12 13 12 12 14 18
-1 -0 -0 -0 -0 -0 -1 -1 -1 -1 -1 -0 4 9 1 1 9 9 11 10 10 9 10 11 9 9 11 11 12 12 12 9 6 7 11 8 10 14 13 9 8 9 11 11 16 17 14
-1 -0 -0 -0 -0 -0 -1 -1 -1 -1 -1 2 6 6 1 2 11 11 9 11 10 11 11 11 10 9 8 10 13 11 10 7 6 8 10 9 13 17 16 12 10 12 11 10 11 11 15
-1 -0 -0 -0 -0 -1 -1 -1 -1 -1 -1 1 5 9 6 5 6 9 10 10 11 9 10 10 10 9 9 11 9 12 10 8 7 7 7 7 11 13 16 13 11 13 12 11 12 16 15
-1 -0 -1 -1 -1 -1 -1 -1 -1 -1 -1 1 5 8 8 11 9 8 8 10 12 12 9 9 11 11 11 13 12 11 9 9 8 7 8 9 14 12 11 10 10 11 11 12 13 12 15
-1 -0 -1 -1 -1 -1 -1 -1 -1 -1 -0 3 7 8 8 9 7 9 9 11 11 11 9 11 12 11 12 12 11 12 10 10 10 8 9 9 14 12 14 11 11 12 11 10 11 11 11
-1 -1 -1 -1 -1 -1 -1 -1 -1 0 -0 4 4 4 5 7 9 9 10 9 10 10 9 8 9 10 11 10 7 6 6 6 7 9 10 11 13 14 16 12 12 16 12 11 10 9 10
-1 -1 -1 -1 -1 -1 -1 -1 -0 -0 -0 1 2 3 7 9 8 9 8 8 9 9 10 9 8 9 7 4 5 6 7 7 7 8 7 11 12 13 16 14 20 11 7 8 10 9 8
-1 -1 -1 -1 -1 -1 -1 -1 -1 -0 -0 1 3 5 7 9 8 8 8 8 7 7 9 9 8 6 5 7 11 13 13 12 11 9 9 9 12 15 17 17 13 11 9 9 10 11 7
-1 -1 -1 -1 -1 -1 -1 -1 -1 -0 -0 1 2 3 6 9 9 8 9 7 9 9 9 8 7 6 5 9 12 15 17 14 15 13 9 9 9 13 15 18 19 11 8 7 7 14 7
-0 -1 -1 -1 -1 -1 -1 -1 -1 -1 -1 1 2 3 4 8 7 8 9 9 6 8 10 9 9 9 6 11 13 15 15 12 15 15 15 14 13 15 15 17 14 9 8 7 15 12 7
1 0 -1 -1 -1 -1 -1 -1 -1 -1 -1 1 1 2 3 6 6 8 8 8 7 7 10 9 9 10 10 12 13 13 14 12 12 11 13 14 15 15 14 16 18 7 9 11 8 7 7
2 1 0 -0 -1 -1 -1 -1 -1 -1 -1 0 2 2 2 6 7 5 6 6 7 8 9 8 9 9 8 11 11 11 12 11 12 14 9 13 11 12 12 12 8 6 7 6 7 7 9

GFSGBSN_con_lsi_168.txt.gz
Lid_Strength_Index
-2 -2 -1 -2 -2 -2 -2 -2 -2 -2 -1 -1 -1 -1 -1 -1 -1 -1 -1 -1 -1 -1 -2 -2 -1 -1 1 5 6 1 -0 -1 -0 1 3 4 5 6 8 7 6 8 7 6 6 6 7
-2 -2 -2 -2 -2 -2 -2 -2 -2 -2 -1 -1 -1 -1 -1 -1 -1 -2 -1 -2 -1 -1 -1 -2 -2 -1 3 9 0 -1 -0 1 1 2 3 3 4 4 6 7 8 7 7 7 6 6 6
-2 -2 -2 -2 -2 -2 -2 -2 -2 -2 -2 -1 -1 -1 -1 -1 -1 -2 -1 -1 -1 -1 -1 -1 -1 0 4 6 2 -1 -0 0 1 2 4 3 3 5 6 8 6 6 9 8 8 7 7
-2 -2 -2 -2 -2 -1 -2 -2 -2 -2 -2 -2 -1 -1 -1 -1 -1 -1 -1 -1 -1 -1 -2 -2 -2 1 6 1 1 1 -0 1 -0 0 2 1 2 4 6 5 7 9 9 12 8 7 7
-2 -2 -2 -2 -2 -1 -2 -2 -2 -2 -2 -2 -2 -1 -1 -1 -1 -1 -1 -1 -1 -1 -2 -1 1 3 6 1 3 2 0 3 2 1 1 1 3 6 6 9 11 10 15 13 11 8 8
-2 -2 -2 -2 -1 -1 -1 -2 -2 -2 -2 -2 -2 -1 -1 -1 -0 -1 -1 -1 -1 -0 -0 1 1 6 5 6 3 3 1 1 3 4 5 5 6 9 9 11 16 14 14 13 13 10 10
-2 -2 -2 -2 -1 -1 -1 -2 -2 -2 -2 -2 -1 -2 -1 -0 -0 -1 -0 1 4 5 4 6 6 6 5 4 2 4 2 3 4 6 10 7 11 13 11 9 10 11 13 12 12 9 10
-2 -2 -2 -2 -2 -1 -1 -1 -2 -2 -2 -2 -2 -2 -2 -0 1 1 0 4 4 3 8 4 4 5 4 3 7 5 2 6 7 11 8 10 13 9 8 8 10 10 12 13 11 9 10
-2 -2 -2 -2 -1 -1 -1 -1 -2 -2 -2 -1 -1 -1 -2 -2 1 2 3 3 -0 1 8 7 5 5 5 4 6 7 4 6 8 10 10 12 10 7 8 10 11 11 12 12 12 10 10
-2 -2 -2 -1 -1 -1 -1 -1 -1 -1 -1 -1 -1 -2 -2 -1 2 2 5 1 -0 0 12 11 8 6 5 5 7 4 4 6 8 11 10 11 7 9 10 11 10 13 9 10 11 13 16
-2 -1 -1 -1 -1 -1 -1 -1 -1 -1 -1 -1 -1 -1 -2 -0 1 4 4 2 1 3 20 9 8 2 4 7 7 7 4 6 10 10 9 11 10 10 11 10 9 12 9 10 11 13 14
-1 -1 -1 -1 -1 -1 -1 -1 -1 -1 -1 -1 -1 -1 -2 0 1 0 1 1 2 13 19 13 8 9 9 7 7 6 7 5 7 9 10 10 8 9 9 8 8 8 11 12 12 13 19
-1 -1 -1 -1 -1 -1 -1 -1 -1 -1 -1 -1 -1 -1 -1 -0 4 -1 1 4 14 18 10 13 12 10 10 10 10 9 10 10 12 14 14 12 11 9 8 11 9 10 13 19 20 20 20
-2 -1 -1 -1 -1 -1 -1 -1 -1 -1 -1 -1 -1 -1 -1 0 -0 -0 2 10 17 14 13 9 10 10 12 10 10 10 11 13 9 11 13 15 17 11 9 10 12 12 13 17 22 21 18
-1 -1 -1 -1 -1 -1 -1 -1 -1 -1 -1 -1 -1 0 1 0 -1 0 7 15 15 13 11 11 10 13 13 11 11 11 12 12 10 9 14 14 14 9 9 8 9 12 15 11 16 16 18
-1 -1 -1 -0 -1 -1 -1 -1 -1 -1 -1 -1 2 2 3 -1 0 4 10 13 12 9 10 10 14 12 15 13 12 12 12 9 10 8 8 11 15 11 10 8 9 11 9 16 15 22 22
-1 -1 -0 -0 -0 -0 -1 -1 -1 -1 -1 -1 2 6 2 -0 2 8 12 12 10 8 9 12 12 13 12 13 12 13 12 9 8 9 8 10 12 14 11 12 13 12 13 13 13 15 20
-1 -0 -0 -0 -0 -0 -1 -1 -1 -1 -1 0 4 9 2 1 8 9 11 10 9 9 9 11 11 11 12 11 12 12 12 10 7 7 11 9 12 16 14 10 9 10 12 12 16 18 15
-1 -1 -0 -0 -0 -0 -1 -1 -1 -1 -1 3 8 7 2 2 12 11 9 10 9 10 11 11 12 11 10 11 14 11 11 7 7 8 10 9 13 17 16 13 11 12 11 11 11 13 17
-1 -1 -1 -1 -1 -1 -1 -1 -1 -1 -1 2 6 10 7 5 6 10 11 11 12 7 9 9 10 10 11 12 10 12 11 8 7 7 7 8 12 14 16 14 12 14 12 11 12 16 16
-1 -1 -1 -1 -1 -1 -1 -1 -1 -1 -1 2 5 9 8 11 10 9 9 10 11 12 8 8 10 11 12 14 13 12 10 9 8 7 8 9 15 12 12 11 11 12 12 12 14 13 15
-1 -1 -1 -1 -1 -1 -1 -1 -1 -1 -1 4 7 9 8 10 8 9 10 12 11 11 10 11 12 11 10 14 13 15 11 10 11 9 9 9 14 13 14 11 12 13 12 11 12 12 12
-1 -1 -1 -1 -1 -1 -1 -1 -1 -1 -0 5 4 5 6 8 10 11 10 11 10 9 8 8 9 11 11 10 9 9 8 8 8 10 11 11 13 14 17 13 13 16 13 12 12 10 11
-1 -1 -1 -1 -1 -1 -1 -1 -1 -1 -0 3 3 4 8 11 9 10 9 8 9 9 11 9 9 10 8 5 6 7 8 8 8 8 8 12 13 13 16 15 20 13 9 9 10 10 9
-1 -1 -1 -1 -1 -1 -1 -1 -1 -1 -1 1 3 4 7 11 9 9 8 8 8 7 9 9 8 8 6 7 11 12 13 12 12 10 9 9 12 15 17 17 14 12 11 11 11 11 8
-1 -1 -1 -1 -1 -1 -1 -1 -0 -1 -1 1 3 2 6 9 10 9 9 9 10 10 9 9 7 6 7 10 13 15 17 15 15 13 10 10 10 14 16 18 20 12 9 8 9 14 9
-0 -1 -1 -1 -1 -1 -1 -1 -0 -1 -1 1 2 2 5 8 7 9 9 9 8 9 11 9 9 9 7 12 15 15 15 13 16 16 15 14 14 16 16 17 16 10 10 8 15 13 8
1 0 -0 -1 -1 -1 -1 -1 -1 -1 -0 1 3 3 4 7 6 6 8 9 8 9 11 9 9 9 9 12 14 14 14 13 14 13 14 14 15 16 15 17 18 9 10 12 10 10 9
2 2 1 0 -0 -1 -1 -1 -1 -1 -1 -1 3 2 2 6 6 5 6 7 7 8 8 8 10 9 8 10 11 11 13 13 15 18 11 15 12 13 13 13 9 9 9 8 9 9 10

GFSGBSN_con_lsi_171.txt.gz
Lid_Strength_Index
-2 -2 -2 -2 -1 -1 -2 -2 -2 -2 -2 -1 -1 -1 -1 -1 -1 -2 -2 -2 -1 -1 -2 -2 -1 0 1 6 7 2 0 -1 -1 1 3 4 6 7 9 9 8 9 8 7 6 6 7
-2 -2 -2 -2 -2 -2 -1 -2 -2 -2 -2 -2 -1 -1 -1 -1 -1 -2 -2 -2 -2 -1 -2 -2 -2 -1 3 10 3 0 1 2 1 2 3 3 5 5 7 8 10 8 8 7 7 7 7
-2 -2 -2 -2 -2 -2 -1 -1 -2 -2 -2 -2 -2 -1 -1 -1 -1 -1 -2 -1 -2 -1 -2 -2 -1 0 4 6 3 2 1 2 2 2 5 3 3 5 7 9 7 8 10 9 9 8 8
-2 -2 -2 -2 -2 -2 -2 -1 -2 -2 -2 -2 -2 -1 -1 -1 -1 -1 -1 -1 -1 -1 -2 -2 -2 2 6 1 1 2 2 2 1 0 2 2 3 5 7 7 8 10 11 13 9 8 8
-2 -2 -2 -2 -2 -2 -1 -1 -2 -2 -2 -2 -2 -1 -1 -1 -1 -1 -1 -1 -1 -1 -2 -2 1 4 7 1 3 1 2 3 2 2 2 1 3 7 7 11 13 13 17 15 13 9 9
-2 -2 -2 -2 -2 -2 -1 -1 -2 -2 -2 -2 -2 -2 -1 -1 -1 -1 -1 -1 -1 -0 -0 0 1 6 5 6 3 2 2 1 4 4 5 6 7 10 11 14 18 16 16 15 15 13 10
-2 -2 -2 -2 -2 -2 -1 -1 -1 -1 -2 -2 -2 -2 -1 -1 -1 -1 -1 1 4 5 3 6 6 6 5 4 2 3 2 3 4 6 10 8 12 13 11 10 12 13 15 15 14 12 12
-2 -2 -2 -2 -2 -2 -1 -1 -1 -1 -2 -2 -2 -2 -1 -1 -1 -1 0 4 4 3 8 4 4 4 4 3 7 5 2 7 8 11 9 11 13 10 8 9 10 11 13 15 13 10 11
-1 -2 -2 -2 -2 -1 -1 -1 -1 -1 -2 -2 -1 -2 -1 -1 -1 0 3 3 1 1 8 7 5 6 5 4 7 8 4 6 9 10 11 12 11 8 9 10 11 12 13 13 13 11 11
-2 -2 -2 -1 -1 -1 -1 -1 -1 -1 -1 -1 -2 -2 -1 -1 2 2 4 1 1 1 12 11 8 6 5 5 8 4 3 6 8 11 10 11 8 9 10 11 10 14 10 10 11 13 17
-2 -2 -1 -1 -1 -1 -1 -1 -1 -1 -1 -1 -1 -2 -2 -1 3 5 3 2 1 3 20 10 8 3 4 7 7 7 3 6 10 10 10 12 11 11 12 11 9 12 9 10 11 13 15
-2 -2 -2 -2 -1 -1 -1 -1 -1 -1 -1 -1 -1 -1 -1 0 3 1 2 2 5 13 19 13 8 9 9 8 8 7 7 5 7 9 10 11 9 9 9 9 8 8 11 11 12 14 18
-2 -2 -1 -1 -1 -1 -1 -1 -1 -1 -1 -1 -1 -1 -1 0 5 -0 2 7 15 18 11 13 12 10 10 11 10 9 10 11 12 15 15 12 11 10 9 11 9 10 13 19 20 20 20
-2 -1 -1 -1 -1 -1 -1 -1 -1 -1 -1 -1 -1 -1 -0 0 -0 -0 3 11 17 14 14 9 10 10 12 10 11 10 11 13 10 12 14 15 17 11 9 11 12 12 13 17 22 21 19
-1 -1 -1 -1 -1 -1 -1 -1 -1 -1 -1 -1 -1 2 3 1 -0 0 8 15 15 13 12 11 11 13 13 11 11 11 12 12 10 10 14 15 15 10 9 9 9 13 15 11 16 18 19
-1 -1 -1 -1 -1 -1 -1 -1 -1 -1 -1 -1 4 4 4 1 1 3 10 13 12 10 11 10 14 12 15 13 13 12 12 10 11 9 10 12 16 11 10 9 10 11 10 16 15 21 24
-1 -1 -0 -0 -0 -1 -1 -1 -1 -1 -1 -0 5 8 2 1 3 8 13 12 11 10 10 11 13 13 12 13 12 13 13 10 9 9 8 10 12 14 11 12 13 12 13 13 13 16 21
-1 -1 -0 -0 -0 -1 -1 -1 -1 -1 -1 2 7 11 2 1 10 12 13 11 9 9 9 11 11 12 12 11 12 13 13 11 7 8 11 9 12 16 14 11 10 10 12 12 16 18 16
-1 -1 -1 -1 -1 -1 -1 -1 -1 -1 0 5 9 8 2 3 15 18 12 12 10 11 10 11 12 11 11 12 14 11 11 8 7 8 10 9 13 17 16 13 11 12 11 11 12 13 17
-1 -1 -1 -1 -1 -1 -1 -1 -1 -1 -1 5 9 12 8 6 8 14 18 15 14 9 10 10 11 11 12 13 12 12 11 9 7 8 7 7 12 14 16 15 13 15 13 12 12 17 16
-1 -1 -1 -1 -1 -1 -1 -1 -1 -1 -1 5 9 12 12 11 11 13 11 11 12 15 9 9 12 12 11 14 13 12 11 9 8 7 8 9 14 13 12 12 12 12 13 13 14 13 16
-1 -1 -1 -1 -1 -1 -1 -1 -1 -1 1 6 12 13 12 17 11 10 12 16 12 13 11 11 12 11 11 14 12 14 12 12 11 9 10 9 14 13 14 12 12 14 12 12 12 12 12
-1 -1 -1 -1 -1 -1 -1 -2 -2 -1 2 8 7 7 10 12 13 15 14 14 12 10 10 9 10 11 11 11 10 8 9 10 10 12 11 11 13 14 17 13 13 16 13 12 12 11 11
-1 -1 -1 -1 -1 -1 -1 -1 -2 -1 1 5 6 7 12 16 13 13 10 10 11 10 11 10 9 10 8 6 7 7 8 10 10 11 8 12 12 13 16 15 20 13 10 9 11 10 9
-1 -1 -1 -1 -1 -1 -1 -1 -1 -1 -0 5 5 7 13 18 13 11 10 10 9 8 9 9 9 8 6 8 11 15 17 14 13 11 10 9 12 15 17 17 15 13 12 12 12 12 8
-1 -1 -1 -1 -1 -1 -1 -1 -1 -1 -1 4 5 3 6 10 14 9 10 10 11 13 10 9 7 6 6 10 12 17 21 16 15 15 10 9 10 13 15 18 20 13 10 9 10 15 9
0 -0 -1 -1 -1 -1 -1 -1 -1 -1 -1 2 4 4 5 9 10 8 9 10 8 9 11 12 11 9 7 14 20 16 18 14 16 16 15 14 14 16 16 17 17 12 11 9 15 13 8
2 1 1 -0 -1 -1 -1 -1 -1 -1 -1 3 5 5 6 8 8 6 7 9 8 9 12 9 9 9 11 12 19 16 15 14 15 13 14 15 15 16 15 17 18 10 11 12 10 10 10
3 2 2 1 1 0 -0 -1 -1 -1 -1 0 6 3 4 7 10 5 5 5 6 7 9 8 11 9 9 15 16 14 14 13 15 16 11 15 12 14 13 13 10 10 10 9 10 9 10

GFSGBSN_con_lsi_174.txt.gz
Lid_Strength_Index
-2 -2 -2 -2 -2 -2 -2 -1 -2 -2 -2 -2 -2 -1 -1 -1 -1 -1 -2 -2 -1 -1 -2 -1 -1 0 3 7 7 2 0 -1 -0 1 3 4 6 7 10 10 10 10 10 7 7 7 8
-2 -2 -2 -2 -2 -2 -2 -2 -1 -2 -2 -2 -2 -2 -1 -1 -1 -1 -1 -2 -2 -1 -2 -1 -1 -1 4 12 4 2 2 2 1 2 3 4 5 5 8 10 11 9 9 8 7 8 7
-2 -2 -2 -2 -2 -2 -2 -2 -1 -1 -2 -2 -2 -2 -1 -1 -1 -1 -1 -2 -2 -1 -2 -1 -1 1 4 8 4 2 2 3 2 2 5 3 3 6 7 9 7 8 11 9 9 8 9
-2 -2 -2 -2 -2 -2 -2 -2 -1 -1 -2 -2 -2 -2 -2 -1 -1 -1 -1 -1 -1 -1 -2 -2 -1 2 8 2 3 3 3 3 2 2 2 3 3 5 7 7 9 11 11 13 10 8 8
-2 -2 -2 -2 -2 -2 -2 -2 -1 -1 -2 -2 -2 -2 -2 -1 -1 -1 -1 -1 -1 -1 -2 -2 2 5 9 1 3 2 2 4 2 2 2 2 4 8 8 11 13 13 16 15 12 9 9
-2 -2 -2 -2 -2 -2 -2 -2 -1 -1 -2 -2 -2 -2 -2 -2 -1 -1 -1 -1 -1 -1 -0 1 2 6 7 6 3 2 2 3 4 4 5 6 9 12 12 14 17 16 15 15 15 13 11
-2 -2 -2 -2 -2 -2 -2 -1 -1 -1 -2 -2 -2 -2 -2 -1 -1 -1 -1 1 4 5 3 6 6 6 5 4 3 4 2 3 4 6 10 9 12 15 11 11 13 14 16 17 15 13 13
-2 -2 -2 -2 -2 -2 -2 -1 -1 -1 -1 -2 -2 -2 -2 -2 -1 -1 0 4 4 3 8 4 5 5 4 4 6 5 2 7 8 11 9 11 14 11 9 9 11 14 16 17 15 12 13
-2 -2 -2 -2 -2 -2 -2 -1 -1 -1 -1 -1 -1 -2 -2 -1 -1 0 2 3 2 1 8 7 5 6 5 4 7 7 4 6 9 11 11 12 11 8 9 11 12 12 13 14 14 12 13
-2 -2 -2 -2 -1 -1 -1 -1 -1 -1 -1 -1 -1 -2 -2 -1 2 2 4 2 1 1 12 11 8 6 5 5 8 5 3 6 9 11 10 11 8 9 11 12 11 14 10 10 12 13 17
-2 -2 -2 -2 -2 -1 -1 -1 -1 -1 -1 -1 -1 -2 -1 -1 2 4 3 2 1 3 20 9 9 2 4 7 8 8 3 6 10 10 10 12 11 11 12 11 10 13 9 11 12 14 16
-2 -2 -2 -2 -2 -1 -1 -1 -1 -1 -1 -1 -1 -1 -1 0 1 2 1 2 5 13 19 13 8 9 9 8 8 7 7 5 6 9 10 10 8 9 10 9 9 9 11 11 12 14 19
-2 -2 -2 -1 -1 -1 -1 -1 -1 -1 -1 -1 -1 -1 -0 1 4 0 2 5 14 17 10 13 12 10 10 11 10 9 10 11 12 15 14 11 11 9 9 11 10 10 13 18 20 19 20
-1 -1 -1 -1 -1 -1 -1 -1 -1 -1 -1 -1 -1 -1 -0 0 -0 2 4 10 17 14 13 9 10 10 12 10 11 10 11 13 10 12 14 16 17 11 8 10 12 12 13 17 22 21 20
-1 -1 -1 -1 -1 -1 -1 -1 -1 -1 -1 -1 -1 2 3 1 -0 1 7 14 15 13 12 12 11 13 13 11 11 11 12 12 10 10 14 15 15 11 9 9 9 13 15 12 17 22 21
-1 -1 -1 -1 -1 -1 -1 -1 -1 -1 -1 -1 2 4 3 1 1 3 10 13 12 10 11 11 14 12 15 13 13 13 13 10 11 9 10 12 16 11 10 9 10 11 10 16 18 24 25
-1 -1 -0 -0 -1 -1 -1 -1 -1 -1 -1 -1 5 8 3 2 2 8 13 13 11 9 9 12 13 13 13 13 12 13 13 10 9 9 9 11 13 14 11 13 13 12 14 13 13 17 23
-1 -1 -1 -1 -1 -1 -1 -1 -1 -1 -1 3 8 9 2 3 12 13 17 15 9 9 9 10 10 12 12 12 13 13 13 11 8 8 11 10 12 16 14 11 10 10 12 12 17 19 17
-1 -1 -1 -1 -1 -1 -1 -1 -1 -1 1 5 9 8 3 5 17 14 11 13 10 11 10 11 12 10 11 12 14 12 11 8 8 8 10 9 13 17 16 13 12 12 11 11 12 13 16
-1 -1 -1 -1 -1 -1 -1 -1 -1 -0 1 5 10 11 8 7 10 14 15 17 15 9 9 10 12 10 12 12 11 12 12 9 8 8 7 8 12 14 16 15 13 14 13 11 12 17 16
-1 -1 -1 -1 -1 -1 -1 -1 -0 -0 1 5 11 12 13 12 11 16 13 13 14 16 10 9 11 11 12 15 13 13 12 11 9 8 8 9 15 13 12 13 12 12 13 13 14 13 16
-1 -1 -1 -1 -1 -1 -1 -1 -1 0 1 8 12 13 14 19 12 12 15 16 13 15 11 12 12 10 11 14 12 14 12 12 13 10 10 9 14 13 14 12 12 14 12 12 12 12 12
-2 -2 -2 -2 -2 -2 -2 -1 -1 0 3 8 8 8 11 13 14 15 15 14 11 10 11 10 11 11 11 10 9 9 8 10 10 12 12 12 13 14 17 13 14 16 13 12 12 11 11
-1 -1 -2 -1 -1 -2 -2 -2 -1 -0 2 6 7 9 13 17 14 14 11 10 11 11 11 10 10 10 9 6 7 7 8 9 10 10 10 13 14 13 16 15 20 13 9 10 11 10 9
-1 -1 -1 -1 -1 -1 -1 -1 -1 -0 0 5 6 9 14 19 15 12 11 11 10 10 10 9 9 8 7 8 14 19 19 14 12 11 11 10 12 15 17 17 15 14 13 11 12 12 9
-1 -1 -1 -1 -1 -1 -1 -1 -1 -1 0 5 6 6 9 13 14 10 10 9 11 11 12 11 8 7 7 11 15 18 23 22 21 16 10 10 10 13 15 18 20 12 11 10 10 15 9
1 0 -0 -1 -1 -1 -1 -1 -1 -1 -1 4 6 5 7 9 11 8 11 12 9 10 11 10 11 10 8 14 19 22 22 15 19 22 18 14 13 15 16 17 16 13 12 10 15 13 9
2 1 1 1 0 -1 -1 -1 -1 -1 -1 4 6 5 7 12 10 8 9 8 9 9 13 12 9 10 12 16 18 19 22 16 14 14 14 14 15 16 15 17 18 12 12 13 11 11 10
3 3 2 2 1 1 0 -0 -1 -1 -1 2 6 3 3 9 10 6 6 5 6 6 9 8 12 11 10 16 18 20 20 16 16 16 11 15 12 14 13 14 10 11 11 11 11 10 10